Weather History for KAFN - December, 2012

Change the Weather History Date:

Wednesday, December 12, 2012

  Actual Average Record
Temperature  
Mean Temperature 28 °F -  
Max Temperature 37 °F 35 °F 52 °F (2010)
Min Temperature 19 °F 19 °F 1 °F (2013)
Degree Days  
Heating Degree Days 37    
Moisture  
Dew Point 19 °F    
Average Humidity 71    
Maximum Humidity 89    
Minimum Humidity 44    
Precipitation  
Precipitation 0.00 in - - ()
Sea Level Pressure  
Sea Level Pressure 30.34 in    
Wind  
Wind Speed 3 mph (WSW)    
Max Wind Speed 8 mph    
Max Gust Speed -    
Visibility 10 miles    
Events      
Averages and records for this station are not official NWS values.
T = Trace of Precipitation, MM = Missing Value Source: NWS Daily Summary

Daily Weather History Graph

Daily Weather History Graph

Search for Another Location

Airport or City:

Trip Planner

Search our weather history database for the weather conditions in past years. The results will help you decide how hot, cold, wet, or windy it might be!

Date:

Astronomy

Dec. 12, 2012 Rise Set
Actual Time 7:09 AM EST 4:14 PM EST
Civil Twilight 6:37 AM EST 4:46 PM EST
Nautical Twilight 6:01 AM EST 5:21 PM EST
Astronomical Twilight 5:27 AM EST 5:56 PM EST
Moon 6:10 AM EST (12/12) 3:48 PM EST (12/12)
Length of Visible Light 10h 08m
Length of Day
9h 04m
Waning Crescent, 1% of the Moon is Illuminated
Dec 12
Waning Crescent
Dec 13
New
Dec 20
First Quarter
Dec 28
Full
Jan 4
Last Quarter

Hourly Weather History & Observations

Time (EST) Temp. Windchill Dew Point Humidity Pressure Visibility Wind Dir Wind Speed Gust Speed Precip Events Conditions
12:52 AM 28.0 °F 20.8 °F 16.0 °F 61% 30.17 in 10.0 mi West 6.9 mph - N/A   Clear
1:52 AM 27.0 °F 20.5 °F 16.0 °F 63% 30.20 in 10.0 mi West 5.8 mph - N/A   Clear
2:52 AM 25.0 °F - 17.1 °F 72% 30.22 in 10.0 mi Calm Calm - N/A   Clear
3:52 AM 23.0 °F - 18.0 °F 81% 30.23 in 10.0 mi Calm Calm - N/A   Clear
4:52 AM 21.9 °F - 18.0 °F 85% 30.26 in 10.0 mi Calm Calm - N/A   Clear
5:52 AM 21.0 °F - 17.1 °F 85% 30.30 in 10.0 mi Calm Calm - N/A   Clear
6:52 AM 19.9 °F - 17.1 °F 89% 30.32 in 10.0 mi Calm Calm - N/A   Clear
7:52 AM 19.9 °F - 17.1 °F 89% 30.34 in 10.0 mi Calm Calm - N/A   Clear
8:52 AM 24.1 °F - 19.0 °F 81% 30.35 in 10.0 mi Calm Calm - N/A   Clear
9:52 AM 30.0 °F - 19.0 °F 64% 30.36 in 10.0 mi Calm Calm - N/A   Clear
10:52 AM 32.0 °F 27.5 °F 17.1 °F 54% 30.35 in 10.0 mi WSW 4.6 mph - N/A   Clear
11:52 AM 33.1 °F 30.0 °F 17.1 °F 52% 30.33 in 10.0 mi SSW 3.5 mph - N/A   Clear
12:52 PM 37.0 °F 31.0 °F 17.1 °F 44% 30.32 in 10.0 mi West 8.1 mph - N/A   Clear
1:52 PM 37.0 °F 33.3 °F 18.0 °F 46% 30.33 in 10.0 mi WSW 4.6 mph - N/A   Clear
2:52 PM 37.0 °F 33.3 °F 19.0 °F 48% 30.34 in 10.0 mi Variable 4.6 mph - N/A   Partly Cloudy
3:52 PM 35.1 °F - 19.0 °F 52% 30.38 in 10.0 mi Calm Calm - N/A   Mostly Cloudy
4:52 PM 34.0 °F 31.0 °F 19.9 °F 56% 30.39 in 10.0 mi West 3.5 mph - N/A   Overcast
5:52 PM 28.9 °F - 21.9 °F 75% 30.41 in 10.0 mi Calm Calm - N/A   Partly Cloudy
6:52 PM 27.0 °F - 21.9 °F 81% 30.42 in 10.0 mi Calm Calm - N/A   Clear
7:52 PM 27.0 °F - 21.9 °F 81% 30.43 in 10.0 mi Calm Calm - N/A   Clear
8:52 PM 26.1 °F - 21.0 °F 81% 30.42 in 10.0 mi Calm Calm - N/A   Clear
9:52 PM 25.0 °F - 21.0 °F 85% 30.43 in 10.0 mi Calm Calm - N/A   Clear
10:52 PM 23.0 °F - 19.9 °F 88% 30.44 in 10.0 mi Calm Calm - N/A   Clear
11:52 PM 21.9 °F 17.2 °F 19.0 °F 89% 30.45 in 10.0 mi South 3.5 mph - N/A   Clear